(329659) = 2003 SZ383 = 2007 YX35

Discovered at Apache Point on 2003-09-26 by Sloan Digital Sky Survey.

Orbit

Orbit type: Main Belt

Note: WebGL enabled browser required.

epoch2023-09-13.0
epoch JD2460200.5
perihelion date2020-10-20.00149
perihelion JD2459142.50149
argument of perihelion (°)320.29536
ascending node (°)69.33479
inclination (°)2.26311
eccentricity0.0285296
perihelion distance (AU)2.1844146
Tisserand w.r.t. Jupiter3.6
ΔV w.r.t. Earth (km/sec)9.1
semimajor axis (AU)2.2485653
mean anomaly (°)309.26490
mean daily motion (°/day)0.29231130
aphelion distance (AU)2.313
period (years)3.37
P-vector [x]0.86876869
P-vector [y]0.46379833
P-vector [z]0.17358594
Q-vector [x]-0.49383786
Q-vector [y]0.78522853
Q-vector [z]0.37355096
absolute magnitude18.19
phase slope0.15
uncertainty0
referenceMPEC 2023-R69
observations used179
oppositions12
arc length (days)7818
first opposition used2002
last opposition used2023
residual rms (arc-secs)0.95
perturbers coarse indicatorM-v
perturbers precise indicator003Ek
first observation date used2002-04-13.0
last observation date used2023-09-08.0
computer nameMPCLINUX
JD of orbit computation2456523.307843
perihelion JD uncertainty (days)3.7897E-04
argument of perihelion uncertainty (°)1.5928E-04
ascending node uncertainty (°)1.1137E-04
inclination uncertainty (°)3.4209E-06
eccentricity uncertainty 4.8665E-08
perihelion distance uncertainty (AU)1.0748E-07
Minimum Orbit Intersection Distances (in AU)
for orbit epoch: 2460200.5, reference: E2023-R69
Mercury1.80709
Venus1.46009
Earth1.18794
Mars0.60911
Jupiter2.76377
Saturn6.83533
Uranus16.152
Neptune27.6536

Observations

188 total observations over interval: 2002 04 13.27133 – 2023 09 14.293861
These data are available for download (format description).

Date (UT) J2000 RA J2000 Dec Magn Location Ref
2002 04 13.27133 14 32 09.99 -12 28 44.2 20.4 R 644 – Palomar Mountain/NEAT MPS 291703
2002 04 13.33574 14 32 06.42 -12 28 29.3   644 – Palomar Mountain/NEAT MPS 291703
2002 04 13.39812 14 32 02.91 -12 28 15.1 20.6 R 644 – Palomar Mountain/NEAT MPS 291703
2003 09 26.310500 00 44 05.286 +00 43 32.97 20.73 V 645 – Apache Point-Sloan Digital Sky Survey MPS 212533
2003 09 26.313972 00 44 05.078 +00 43 31.80 21.38   645 – Apache Point-Sloan Digital Sky Survey MPS 212533
2003 09 28.318600 00 42 10.414 +00 32 15.71 20.78 V 645 – Apache Point-Sloan Digital Sky Survey MPS 212533
2003 09 28.322072 00 42 10.204 +00 32 14.52 21.49   645 – Apache Point-Sloan Digital Sky Survey MPS 212533
2003 09 30.26593 00 40 17.66 +00 21 21.3 20.8 V 691 – Steward Observatory, Kitt Peak-Spacewatch MPS 235310
2003 09 30.29276 00 40 16.01 +00 21 12.2 20.7 V 691 – Steward Observatory, Kitt Peak-Spacewatch MPS 235310
2003 09 30.31872 00 40 14.44 +00 21 03.6 20.9 V 691 – Steward Observatory, Kitt Peak-Spacewatch MPS 235310
2003 10 19.235350 00 22 45.077 -01 09 49.47 20.91 V 645 – Apache Point-Sloan Digital Sky Survey MPS 235310
2003 10 19.238822 00 22 44.896 -01 09 50.19 21.78   645 – Apache Point-Sloan Digital Sky Survey MPS 235310
2007 12 04.45161 07 54 54.61 +22 34 08.9 20.7 V G96 – Mt. Lemmon Survey MPS 235310
2007 12 04.46212 07 54 54.39 +22 34 10.4 21.1 V G96 – Mt. Lemmon Survey MPS 235310
2007 12 04.47260 07 54 54.21 +22 34 11.7 21.1 V G96 – Mt. Lemmon Survey MPS 235310
2007 12 04.48315 07 54 54.00 +22 34 13.4 22.7 V G96 – Mt. Lemmon Survey MPS 235310
2007 12 17.42267 07 48 29.85 +23 12 00.3 21.7 V 691 – Steward Observatory, Kitt Peak-Spacewatch MPS 235310
2007 12 17.44031 07 48 29.15 +23 12 03.3 21.3 V 691 – Steward Observatory, Kitt Peak-Spacewatch MPS 235310
2007 12 17.45796 07 48 28.37 +23 12 06.8 21.8 V 691 – Steward Observatory, Kitt Peak-Spacewatch MPS 235310
2007 12 30.21009 07 36 54.64 +23 58 48.3 20.9 V G96 – Mt. Lemmon Survey MPS 232685
2007 12 30.21669 07 36 54.18 +23 58 49.9 20.6 V G96 – Mt. Lemmon Survey MPS 232685
2007 12 30.22332 07 36 53.78 +23 58 51.3 20.5 V G96 – Mt. Lemmon Survey MPS 232685
2007 12 30.22986 07 36 53.35 +23 58 52.6 20.4 V G96 – Mt. Lemmon Survey MPS 232685
2007 12 31.19424 07 35 51.28 +24 02 29.6 20.8 V 691 – Steward Observatory, Kitt Peak-Spacewatch MPS 232685
2007 12 31.21189 07 35 50.05 +24 02 34.0 21.6 V 691 – Steward Observatory, Kitt Peak-Spacewatch MPS 232685
2007 12 31.22955 07 35 48.86 +24 02 37.6 20.9 V 691 – Steward Observatory, Kitt Peak-Spacewatch MPS 232685
2008 01 15.16507 07 18 34.27 +24 53 25.2 21.1 V G96 – Mt. Lemmon Survey MPS 235310
2008 01 15.17059 07 18 33.91 +24 53 25.0 22.2 V G96 – Mt. Lemmon Survey MPS 235310
2008 01 15.17609 07 18 33.51 +24 53 26.8 21.2 V G96 – Mt. Lemmon Survey MPS 235310
2008 01 15.18156 07 18 33.15 +24 53 28.3 21.0 V G96 – Mt. Lemmon Survey MPS 235310
2010 09 11.42499 03 38 21.22 +17 29 21.8 21.8 V G96 – Mt. Lemmon Survey MPS 347925
2010 09 11.43076 03 38 21.44 +17 29 22.0 21.7 V G96 – Mt. Lemmon Survey MPS 347925
2010 09 11.43664 03 38 21.69 +17 29 22.7 21.6 V G96 – Mt. Lemmon Survey MPS 347925
2010 09 11.44244 03 38 21.91 +17 29 23.8 22.4 V G96 – Mt. Lemmon Survey MPS 347925
2010 10 31.19789 03 27 31.65 +17 12 03.0   691 – Steward Observatory, Kitt Peak-Spacewatch MPS 353724
2010 10 31.21561 03 27 30.56 +17 12 00.3   691 – Steward Observatory, Kitt Peak-Spacewatch MPS 353724
2010 10 31.23331 03 27 29.50 +17 11 57.7   691 – Steward Observatory, Kitt Peak-Spacewatch MPS 353724
2010 11 07.40708 03 20 02.97 +16 52 15.3 20.6 V G96 – Mt. Lemmon Survey MPS 355272
2010 11 07.41211 03 20 02.65 +16 52 14.2 20.6 V G96 – Mt. Lemmon Survey MPS 355272
2010 11 07.41712 03 20 02.29 +16 52 13.2 20.6 V G96 – Mt. Lemmon Survey MPS 355272
2010 11 07.42211 03 20 01.96 +16 52 12.5 20.8 V G96 – Mt. Lemmon Survey MPS 355272
2010 11 10.34160 03 16 50.98 +16 43 36.5 20.3 V G96 – Mt. Lemmon Survey MPS 355272
2010 11 10.34733 03 16 50.59 +16 43 35.6 20.3 V G96 – Mt. Lemmon Survey MPS 355272
2010 11 10.35315 03 16 50.19 +16 43 34.6 20.3 V G96 – Mt. Lemmon Survey MPS 355272
2010 11 10.35896 03 16 49.80 +16 43 33.6 20.3 V G96 – Mt. Lemmon Survey MPS 355272
2010 11 14.22635 03 12 34.48 +16 31 57.5 20.0 V G96 – Mt. Lemmon Survey MPS 357385
2010 11 14.23336 03 12 34.05 +16 31 56.2 20.1 V G96 – Mt. Lemmon Survey MPS 357385
2010 11 14.24037 03 12 33.51 +16 31 54.7 20.0 V G96 – Mt. Lemmon Survey MPS 357385
2010 11 14.24742 03 12 33.08 +16 31 53.6 20.3 V G96 – Mt. Lemmon Survey MPS 357385
2010 11 27.17771 02 59 08.26 +15 55 32.0 20.3 V G96 – Mt. Lemmon Survey MPS 358801
2010 11 27.18645 02 59 07.72 +15 55 31.1 20.2 V G96 – Mt. Lemmon Survey MPS 358801
2010 11 27.19519 02 59 07.22 +15 55 29.7 20.6 V G96 – Mt. Lemmon Survey MPS 358801
2010 11 27.20396 02 59 06.72 +15 55 28.7 20.7 V G96 – Mt. Lemmon Survey MPS 358801
2012 03 04.43029 13 43 22.51 -07 26 10.1 21.8 V G96 – Mt. Lemmon Survey MPS 414154
2012 03 04.43612 13 43 22.44 -07 26 08.7 21.7 V G96 – Mt. Lemmon Survey MPS 414154
2012 03 04.44193 13 43 22.26 -07 26 07.9 20.5 V G96 – Mt. Lemmon Survey MPS 414154
2012 03 04.44776 13 43 22.15 -07 26 08.0 21.0 V G96 – Mt. Lemmon Survey MPS 414154
2012 05 14.23994 12 50 15.36 -02 52 17.0 21.3 V G96 – Mt. Lemmon Survey MPS 423927
2012 05 14.24640 12 50 15.21 -02 52 17.4 21.8 V G96 – Mt. Lemmon Survey MPS 423927
2012 05 14.25288 12 50 15.03 -02 52 16.1 21.5 V G96 – Mt. Lemmon Survey MPS 423927
2012 05 14.25926 12 50 14.89 -02 52 16.6 21.7 V G96 – Mt. Lemmon Survey MPS 423927
2013 08 14.51016 23 49 50.630 -05 19 00.09 20.8 w F51 – Pan-STARRS 1, Haleakala MPS 474332
2013 08 14.52422 23 49 50.229 -05 19 03.38 20.6 w F51 – Pan-STARRS 1, Haleakala MPS 474332
2013 08 14.53826 23 49 49.822 -05 19 06.78 20.8 w F51 – Pan-STARRS 1, Haleakala MPS 474332
2013 08 14.55248 23 49 49.411 -05 19 10.28 20.7 w F51 – Pan-STARRS 1, Haleakala MPS 474332
2015 01 20.42859 10 24 30.292 +13 42 12.47 21.0 w F51 – Pan-STARRS 1, Haleakala MPS 567077
2015 01 20.44716 10 24 29.644 +13 42 17.72 21.0 w F51 – Pan-STARRS 1, Haleakala MPS 567077
2015 01 20.46054 10 24 29.186 +13 42 21.38 21.1 w F51 – Pan-STARRS 1, Haleakala MPS 567077
2015 01 20.47400 10 24 28.710 +13 42 25.19 21.0 w F51 – Pan-STARRS 1, Haleakala MPS 567077
2015 01 22.44578 10 23 20.695 +13 51 49.34 21.7 w F51 – Pan-STARRS 1, Haleakala MPS 567077
2015 01 22.47300 10 23 19.628 +13 51 57.49 21.5 w F51 – Pan-STARRS 1, Haleakala MPS 567077
2015 01 22.48672 10 23 19.106 +13 52 01.51 21.7 w F51 – Pan-STARRS 1, Haleakala MPS 567077
2015 02 13.65685 10 04 05.16 +16 00 33.8 21.0 R D29 – Purple Mountain Observatory, XuYi Station MPS 582990
2015 02 13.67360 10 04 04.02 +16 00 40.0 21.5 R D29 – Purple Mountain Observatory, XuYi Station MPS 582990
2015 02 13.69036 10 04 02.99 +16 00 45.7 20.5 R D29 – Purple Mountain Observatory, XuYi Station MPS 582990
2015 02 18.29455 09 59 13.16 +16 27 48.8 20.7 V G96 – Mt. Lemmon Survey MPS 582990
2015 02 18.29967 09 59 12.82 +16 27 51.0 20.4 V G96 – Mt. Lemmon Survey MPS 582990
2015 02 18.30872 09 59 12.21 +16 27 53.6 20.4 V G96 – Mt. Lemmon Survey MPS 582990
2015 02 18.31384 09 59 11.90 +16 27 55.8 20.5 V G96 – Mt. Lemmon Survey MPS 582990
2015 03 14.26353 09 37 39.874 +18 05 50.20 21.4 w F51 – Pan-STARRS 1, Haleakala MPS 591931
2015 03 14.27704 09 37 39.336 +18 05 51.87 21.1 w F51 – Pan-STARRS 1, Haleakala MPS 591931
2015 03 14.29129 09 37 38.745 +18 05 53.80 21.1 w F51 – Pan-STARRS 1, Haleakala MPS 591931
2015 03 14.30424 09 37 38.210 +18 05 55.53 21.3 w F51 – Pan-STARRS 1, Haleakala MPS 591931
2016 07 05.44648 19 37 36.370 -24 09 40.88 20.6 w F51 – Pan-STARRS 1, Haleakala MPS 719196
2016 07 05.44713 19 37 36.318 -24 09 41.19 20.8 w F51 – Pan-STARRS 1, Haleakala MPS 719196
2016 07 05.45684 19 37 35.697 -24 09 43.21 20.6 w F51 – Pan-STARRS 1, Haleakala MPS 719196
2016 07 05.45749 19 37 35.649 -24 09 43.23 20.7 w F51 – Pan-STARRS 1, Haleakala MPS 719196
2016 07 05.46717 19 37 35.016 -24 09 45.52 20.8 w F51 – Pan-STARRS 1, Haleakala MPS 719196
2016 07 05.46782 19 37 34.986 -24 09 45.50 20.8 w F51 – Pan-STARRS 1, Haleakala MPS 719196
2016 07 05.47750 19 37 34.340 -24 09 47.54 20.8 w F51 – Pan-STARRS 1, Haleakala MPS 719196
